Flag for U.S.A. Weather past 2 weeks in Pontiac, Michigan, U.S.A.

Now
53 °F

Passing clouds.


Feels Like: 49 °F
Forecast: 41 / 57 °F
Wind: 13 mph from Northwest

Location: Oakland County International Airport

Current Time: Oct 25, 2014 at 11:43:39 PM

Latest Report: Oct 25, 2014 at 10:53 PM


Visibility: 10 mi

Pressure: 29.80 "Hg

Humidity: 43%

Dew point: 31 °F

Location of PontiacLocation

Historic Weather in Pontiac — Graph

°F

Pontiac temperature yesterday

Maximum temperature yesterday: 59 °F (at 3:53 PM)
Minimum temperature yesterday: 35 °F (at 12:53 AM)
Average temperature yesterday: 47 °F

Past Weeks' High & Low Weather Summary

 TemperatureHumidityPressure
High68 °F (Oct 13, 11:53 PM)97% (Oct 13, 7:53 AM)30.35 "Hg (Oct 13, 7:53 AM)
Low31 °F (Oct 19, 7:53 AM)26% (Oct 25, 5:53 PM)29.49 "Hg (Oct 17, 2:53 PM)
Average50 °F77%29.95 "Hg
* Reported Oct 10 9:53 PM — Oct 25 9:53 PM, Pontiac, Weather by CustomWeather, © 2014

Note: Actual official high and low records may vary slightly from our data, if they occured in-between our weather recording intervals... More about our weather records

Advertising

Pontiac weather history for previous 24 hours

 ConditionsComfort  
Time TempWeatherWind HumidityBarometerVisibility
9:53 PM
Oct 25
55 °FClear.15 mph40%29.80 "Hg10 mi
8:53 PM55 °FClear.13 mph40%29.78 "Hg10 mi
7:53 PM57 °FClear.17 mph39%29.76 "Hg10 mi
6:53 PM59 °FSunny.18 mph36%29.75 "Hg10 mi
5:53 PM63 °FSunny.24 mph26%29.73 "Hg10 mi
4:53 PM66 °FPassing clouds.23 mph33%29.71 "Hg10 mi
3:53 PM65 °FScattered clouds.22 mph42%29.72 "Hg10 mi
2:53 PM64 °FScattered clouds.20 mph49%29.74 "Hg10 mi
2:02 PM61 °FScattered clouds.14 mph65%29.75 "Hg8 mi
1:04 PM58 °FMostly cloudy.17 mph75%29.79 "Hg6 mi
12:53 PM58 °FMostly cloudy.22 mph75%29.79 "Hg6 mi
11:53 AM57 °FMostly cloudy.15 mph78%29.79 "Hg6 mi
10:53 AM56 °FOvercast.15 mph84%29.79 "Hg6 mi
9:53 AM55 °FPartly sunny.14 mph80%29.79 "Hg7 mi
8:53 AM52 °FPassing clouds.8 mph83%29.81 "Hg7 mi
7:53 AM50 °FFog.6 mph89%29.82 "Hg6 mi
6:53 AM49 °FFog.No wind90%29.84 "Hg5 mi
5:53 AM47 °FFog.3 mph93%29.85 "Hg4 mi
4:53 AM45 °FFog.No wind93%29.86 "Hg2 mi
3:53 AM44 °FFog.No wind93%29.89 "Hg2 mi
2:53 AM46 °FFog.No wind89%29.91 "Hg4 mi
1:53 AM46 °FFog.No wind93%29.92 "Hg5 mi
12:53 AM48 °FFog.3 mph86%29.94 "Hg6 mi
11:53 PM
Oct 24
50 °FPassing clouds.No wind83%29.95 "Hg10 mi
Weather by CustomWeather, © 2014

See weather overviewHow to use our weather pages